Location: Isle of Man Observatory
(54.1776°N, 4.6264°W)
Time: 14:35:10
(UTC+02:00)

ARIANE 6 FM1 Upper Stage - Pass Details

Date: 24 April 2026
Orbit: 526 x 601 km, 62.0° (Epoch: 19 May)

Event Time Altitude Azimuth Distance (km) Brightness Sun altitude
Rises 01:09:27 0° 307° (NW) 2,682 7.0 -21.5°
Reaches altitude 10° 01:11:39 10° 305° (NW) 1,783 5.9 -21.6°
Enters shadow 01:15:33 73° 234° (SW) 557 2.4 -21.8°
